FLOCK 2B-8

Last updated on May 22, 2016, 9:41 a.m. UTC

1 40957U 98067HJ  16143.19605651  .17522001  12488-4  10180-2 0  9990
2 40957  51.6383 158.4347 0002841 328.0391  32.7370 16.41779055 35933

Satellite is not in orbit.